Torna al catalogo

COSMOS 2245

AttivoNavigazionePO
NORAD 22646·PAYLOAD·🇷🇺 Russia

Lanciato May 11, 1993 da Plesetsk Cosmodrome

Loading…

Prossimi Passaggi (prossime 24 ore)

TLE

AggiornatoSource: Space-Track

Epoca: Sep 14, 2026, 00:44 UTC

1 22646U 93030A   26257.03105882  .00000008  00000-0 -12831-4 0  9992
2 22646  82.5797 253.4013 0012838  60.7735 316.4361 12.64078662538303

Traccia COSMOS 2245 in tempo reale con AllMySat

Download on the App Store